Weather History for PASH - April, 2014

Change the Weather History Date:

Wednesday, April 2, 2014

  Actual Average Record
Temperature  
Mean Temperature 0 °F -  
Max Temperature 8 °F 11 °F 32 °F (2007)
Min Temperature -9 °F 0 °F -25 °F (1997)
Degree Days  
Heating Degree Days 66    
Moisture  
Dew Point -9 °F    
Average Humidity 70    
Maximum Humidity 100    
Minimum Humidity 4    
Precipitation  
Precipitation 0.00 in - - ()
Sea Level Pressure  
Sea Level Pressure 30.04 in    
Wind  
Wind Speed 3 mph (NE)    
Max Wind Speed 22 mph    
Max Gust Speed -    
Visibility 9 miles    
Events      
Averages and records for this station are not official NWS values.
T = Trace of Precipitation, MM = Missing Value Source: NWS Daily Summary

Daily Weather History Graph

Daily Weather History Graph

Search for Another Location

Airport or City:

Trip Planner

Search our weather history database for the weather conditions in past years. The results will help you decide how hot, cold, wet, or windy it might be!

Date:

Astronomy

Apr. 02, 2014 Rise Set
Actual Time 8:12 AM AKDT 10:04 PM AKDT
Civil Twilight 7:17 AM AKDT 11:00 PM AKDT
Nautical Twilight 6:04 AM AKDT 12:15 AM AKDT
Astronomical Twilight 4:04 AM AKDT 2:26 AM AKDT
Moon 8:51 AM AKDT (4/2) 1:47 AM AKDT (4/2)
Length of Visible Light 15h 42m
Length of Day
13h 52m
Waxing Crescent, 11% of the Moon is Illuminated
Apr 2
Waxing Crescent
Apr 7
First Quarter
Apr 14
Full
Apr 21
Last Quarter
Apr 28
New

Hourly Weather History & Observations

Time (AKDT) Temp. Windchill Dew Point Humidity Pressure Visibility Wind Dir Wind Speed Gust Speed Precip Events Conditions
12:16 AM 1.4 °F -6.2 °F -0.4 °F 92% 30.17 in 10.0 mi North 3.5 mph - N/A   Clear
12:36 AM -0.4 °F -8.3 °F -2.2 °F 92% 30.17 in 10.0 mi North 3.5 mph - N/A   Clear
12:56 AM -0.4 °F -8.3 °F -2.2 °F 92% 30.17 in 10.0 mi North 3.5 mph - N/A   Clear
1:16 AM 1.4 °F - -0.4 °F 92% 30.16 in 10.0 mi Calm Calm - N/A   Clear
1:36 AM 1.4 °F -6.2 °F 1.4 °F 100% 30.15 in 10.0 mi NNE 3.5 mph - N/A   Clear
1:56 AM -0.4 °F - -4.0 °F 85% 30.16 in 10.0 mi Calm Calm - N/A   Clear
2:16 AM -0.4 °F -10.4 °F -0.4 °F 100% 30.15 in 10.0 mi North 4.6 mph - N/A   Clear
2:36 AM -2.2 °F -10.4 °F -11.2 °F 66% 30.15 in 10.0 mi North 3.5 mph - N/A   Clear
2:56 AM -2.2 °F -10.4 °F -5.8 °F 85% 30.14 in 10.0 mi North 3.5 mph - N/A   Clear
3:16 AM -0.4 °F -8.3 °F -0.4 °F 100% 30.14 in 10.0 mi NNE 3.5 mph - N/A   Clear
4:56 AM -2.2 °F - -7.6 °F 78% 30.12 in 10.0 mi Calm Calm - N/A   Clear
5:16 AM -7.6 °F - -20.2 °F 54% 30.12 in 5.0 mi Calm Calm - N/A   Clear
5:36 AM -5.8 °F - -20.2 °F 50% 30.11 in 5.0 mi Calm Calm - N/A   Clear
5:56 AM -5.8 °F - -27.4 °F 35% 30.10 in 10.0 mi Calm Calm - N/A   Clear
6:16 AM -5.8 °F - -25.6 °F 38% 30.09 in 5.0 mi Calm Calm - N/A   Clear
6:36 AM -5.8 °F - -18.4 °F 55% 30.09 in 2.0 mi Calm Calm - N/A   Clear
6:56 AM -7.6 °F - -20.2 °F 54% 30.09 in 3.0 mi Calm Calm - N/A   Clear
7:16 AM -9.4 °F - -23.8 °F 49% 30.08 in 5.0 mi Calm Calm - N/A   Clear
7:36 AM -9.4 °F - -18.4 °F 65% 30.08 in 5.0 mi Calm Calm - N/A   Clear
7:56 AM -9.4 °F - -23.8 °F 49% 30.08 in 10.0 mi Calm Calm - N/A   Clear
8:16 AM -9.4 °F -18.6 °F -18.4 °F 65% 30.08 in 10.0 mi WNW 3.5 mph - N/A   Clear
8:36 AM -7.6 °F - -14.8 °F 71% 30.07 in 10.0 mi Calm Calm - N/A   Clear
8:56 AM -5.8 °F - -16.6 °F 60% 30.06 in 10.0 mi Calm Calm - N/A   Clear
9:16 AM -7.6 °F - -14.8 °F 71% 30.06 in 10.0 mi Calm Calm - N/A   Clear
9:56 AM -9.4 °F - -25.6 °F 45% 30.06 in 10.0 mi Calm Calm - N/A   Clear
10:16 AM -9.4 °F - - N/A% 30.06 in 10.0 mi Calm Calm - N/A   Clear
10:36 AM -7.6 °F - - N/A% 30.06 in 10.0 mi Calm Calm - N/A   Clear
10:56 AM -5.8 °F - - N/A% 30.06 in 10.0 mi Calm Calm - N/A   Clear
11:16 AM -5.8 °F - -27.4 °F 35% 30.05 in 10.0 mi Calm Calm - N/A   Clear
11:36 AM -5.8 °F - -25.6 °F 38% 30.05 in 10.0 mi Calm Calm - N/A   Clear
11:56 AM -2.2 °F - -22.0 °F 39% 30.05 in 10.0 mi Calm Calm - N/A   Clear
12:16 PM -2.2 °F - -18.4 °F 46% 30.05 in 10.0 mi Calm Calm - N/A   Clear
12:36 PM -2.2 °F - -14.8 °F 55% 30.05 in 10.0 mi Calm Calm - N/A   Clear
12:56 PM -0.4 °F -23.3 °F -9.4 °F 66% 30.05 in 10.0 mi West 21.9 mph - N/A   Clear
1:16 PM 1.4 °F -14.5 °F -2.2 °F 85% 30.04 in 10.0 mi SSW 10.4 mph - N/A   Clear
1:36 PM 3.2 °F -12.2 °F -88.6 °F 4% 30.04 in 10.0 mi SSW 10.4 mph - N/A   Clear
1:56 PM 3.2 °F -12.2 °F -23.8 °F 28% 30.04 in 10.0 mi SSW 10.4 mph - N/A   Clear
2:16 PM 3.2 °F -11.3 °F -23.8 °F 28% 30.03 in 10.0 mi SSW 9.2 mph - N/A   Clear
2:36 PM 3.2 °F - -16.6 °F 39% 30.03 in 10.0 mi Calm Calm - N/A   Clear
2:56 PM 5.0 °F - -11.2 °F 47% 30.03 in 10.0 mi Calm Calm - N/A   Clear
3:16 PM 8.6 °F - - N/A% 30.02 in 10.0 mi Calm Calm - N/A   Clear
3:36 PM 8.6 °F - -14.8 °F 34% 30.02 in 10.0 mi Calm Calm - N/A   Clear
3:56 PM 8.6 °F - 5.0 °F 85% 30.02 in 10.0 mi Calm Calm - N/A   Clear
4:16 PM 8.6 °F 2.0 °F 5.0 °F 85% 30.01 in 10.0 mi ENE 3.5 mph - N/A   Clear
4:36 PM 8.6 °F 0.1 °F 5.0 °F 85% 30.00 in 10.0 mi East 4.6 mph - N/A   Clear
4:56 PM 8.6 °F 2.0 °F 3.2 °F 79% 29.99 in 10.0 mi East 3.5 mph - N/A   Clear
5:36 PM 8.6 °F 0.1 °F 3.2 °F 79% 29.99 in 10.0 mi NE 4.6 mph - N/A   Clear
5:56 PM 8.6 °F -2.6 °F 6.8 °F 92% 29.98 in 10.0 mi NE 6.9 mph - N/A   Clear
6:16 PM 8.6 °F -2.6 °F 6.8 °F 92% 29.98 in 10.0 mi NE 6.9 mph - N/A   Clear
6:36 PM 8.6 °F -1.3 °F 5.0 °F 85% 29.98 in 10.0 mi NE 5.8 mph - N/A   Clear
6:56 PM 8.6 °F -1.3 °F 5.0 °F 85% 29.97 in 10.0 mi ENE 5.8 mph - N/A   Clear
7:16 PM 8.6 °F 0.1 °F 5.0 °F 85% 29.97 in 10.0 mi NE 4.6 mph - N/A   Clear
7:36 PM 8.6 °F -1.3 °F 5.0 °F 85% 29.96 in 10.0 mi NE 5.8 mph - N/A   Clear
7:56 PM 8.6 °F 0.1 °F 3.2 °F 79% 29.96 in 10.0 mi NE 4.6 mph - N/A   Clear
8:16 PM 8.6 °F 0.1 °F 5.0 °F 85% 29.95 in 10.0 mi NE 4.6 mph - N/A   Clear
8:36 PM 8.6 °F 2.0 °F 3.2 °F 79% 29.95 in 10.0 mi NE 3.5 mph - N/A   Clear
8:56 PM 6.8 °F -0.1 °F 3.2 °F 85% 29.96 in 10.0 mi NE 3.5 mph - N/A   Clear
9:16 PM 6.8 °F - 1.4 °F 79% 29.95 in 10.0 mi Calm Calm - N/A   Clear
9:36 PM 6.8 °F - 3.2 °F 85% 29.95 in 10.0 mi Calm Calm - N/A   Clear
9:56 PM 6.8 °F - 5.0 °F 92% 29.95 in 10.0 mi Calm Calm - N/A   Clear
10:16 PM 6.8 °F -0.1 °F 3.2 °F 85% 29.94 in 10.0 mi NE 3.5 mph - N/A   Clear
10:36 PM 3.2 °F -4.2 °F -0.4 °F 85% 29.94 in 10.0 mi NE 3.5 mph - N/A   Clear
10:56 PM 3.2 °F -6.2 °F -0.4 °F 85% 29.94 in 10.0 mi NE 4.6 mph - N/A   Clear
11:16 PM 1.4 °F -8.3 °F 1.4 °F 100% 29.94 in 10.0 mi NE 4.6 mph - N/A   Clear
11:36 PM 3.2 °F -6.2 °F 1.4 °F 92% 29.94 in 10.0 mi NNE 4.6 mph - N/A   Clear
11:56 PM 3.2 °F -6.2 °F 3.2 °F 100% 29.94 in 10.0 mi NE 4.6 mph - N/A   Clear